Meteo pe oră la Bolshie Matveevichi

Astăzi, 18 Mai, Marţi

Timp Temperatura Precipitaţii Vânt Presiune Umiditate
00:00 +14°C° 0.2 mm 2 m/s 738 mmHg 92%
01:00 +14°C° 0.2 mm 2 m/s 738 mmHg 93%
02:00 +14°C° 0.2 mm 2 m/s 738 mmHg 95%
03:00 +13°C° 0.2 mm 1 m/s 738 mmHg 96%
04:00 +13°C° 0.2 mm 1 m/s 738 mmHg 96%
05:00 +13°C° 0.2 mm 1 m/s 738 mmHg 97%
06:00 +14°C° 0.2 mm 2 m/s 738 mmHg 97%
07:00 +14°C° 0.2 mm 2 m/s 738 mmHg 96%
08:00 +15°C° 0.2 mm 2 m/s 738 mmHg 95%
09:00 +15°C° 0.6 mm 2 m/s 738 mmHg 95%
10:00 +15°C° 0.6 mm 2 m/s 738 mmHg 95%
11:00 +15°C° 0.6 mm 2 m/s 738 mmHg 95%
12:00 +14°C° 1.4 mm 3 m/s 738 mmHg 95%
13:00 +14°C° 1.4 mm 3 m/s 738 mmHg 95%
14:00 +14°C° 1.4 mm 4 m/s 738 mmHg 96%
15:00 +14°C° 1.4 mm 3 m/s 738 mmHg 95%
16:00 +13°C° 1.4 mm 3 m/s 738 mmHg 95%
17:00 +13°C° 1.4 mm 3 m/s 739 mmHg 95%
18:00 +13°C° 0.4 mm 3 m/s 739 mmHg 95%
19:00 +13°C° 0.4 mm 3 m/s 739 mmHg 95%
20:00 +13°C° 0.4 mm 3 m/s 739 mmHg 95%
21:00 +12°C° 0.1 mm 3 m/s 739 mmHg 94%
22:00 +12°C° 0.1 mm 3 m/s 739 mmHg 93%
23:00 +12°C° 0.1 mm 3 m/s 739 mmHg 93%

Mâine, 19 Mai, Miercuri

Timp Temperatura Precipitaţii Vânt Presiune Umiditate
00:00 +11°C° 0 mm 3 m/s 739 mmHg 93%
01:00 +10°C° 0 mm 3 m/s 740 mmHg 94%
02:00 +9°C° 0 mm 3 m/s 740 mmHg 94%
03:00 +9°C° 0 mm 3 m/s 740 mmHg 94%
04:00 +9°C° 0 mm 3 m/s 740 mmHg 94%
05:00 +7°C° 0 mm 4 m/s 740 mmHg 94%
06:00 +10°C° 0 mm 4 m/s 741 mmHg 90%
07:00 +11°C° 0 mm 4 m/s 741 mmHg 86%
08:00 +12°C° 0 mm 5 m/s 741 mmHg 81%
09:00 +13°C° 0.1 mm 5 m/s 742 mmHg 79%
10:00 +13°C° 0.1 mm 5 m/s 742 mmHg 77%
11:00 +14°C° 0.1 mm 6 m/s 742 mmHg 75%
12:00 +15°C° 0.1 mm 5 m/s 742 mmHg 73%
13:00 +15°C° 0.1 mm 5 m/s 742 mmHg 72%
14:00 +16°C° 0.1 mm 5 m/s 742 mmHg 70%
15:00 +15°C° 0.3 mm 5 m/s 743 mmHg 73%
16:00 +15°C° 0.3 mm 5 m/s 743 mmHg 75%
17:00 +15°C° 0.3 mm 4 m/s 743 mmHg 78%
18:00 +14°C° 0.2 mm 4 m/s 743 mmHg 81%
19:00 +13°C° 0.2 mm 4 m/s 743 mmHg 85%
20:00 +12°C° 0.2 mm 3 m/s 743 mmHg 88%
21:00 +12°C° 0 mm 3 m/s 744 mmHg 90%
22:00 +11°C° 0 mm 3 m/s 744 mmHg 91%
23:00 +10°C° 0 mm 3 m/s 744 mmHg 92%

Poimâine, 20 Mai, Joi

Timp Temperatura Precipitaţii Vânt Presiune Umiditate
00:00 +10°C° 0 mm 3 m/s 744 mmHg 93%
01:00 +9°C° 0 mm 3 m/s 744 mmHg 94%
02:00 +9°C° 0 mm 3 m/s 744 mmHg 95%
03:00 +9°C° 0 mm 3 m/s 744 mmHg 95%
04:00 +8°C° 0 mm 3 m/s 744 mmHg 95%
05:00 +7°C° 0 mm 4 m/s 744 mmHg 95%
06:00 +8°C° 0 mm 4 m/s 744 mmHg 92%
07:00 +9°C° 0 mm 5 m/s 744 mmHg 89%
08:00 +10°C° 0 mm 5 m/s 745 mmHg 85%
09:00 +12°C° 0 mm 5 m/s 745 mmHg 81%
10:00 +13°C° 0 mm 5 m/s 745 mmHg 77%
11:00 +14°C° 0 mm 5 m/s 745 mmHg 73%
12:00 +14°C° 0.1 mm 5 m/s 745 mmHg 69%
13:00 +15°C° 0.1 mm 5 m/s 745 mmHg 66%
14:00 +15°C° 0.1 mm 6 m/s 745 mmHg 62%
15:00 +15°C° 0 mm 5 m/s 745 mmHg 62%
16:00 +16°C° 0 mm 5 m/s 745 mmHg 62%
17:00 +16°C° 0 mm 5 m/s 746 mmHg 62%
18:00 +14°C° 0 mm 4 m/s 746 mmHg 66%
19:00 +13°C° 0 mm 4 m/s 746 mmHg 71%
20:00 +12°C° 0 mm 4 m/s 746 mmHg 76%
21:00 +11°C° 0 mm 4 m/s 747 mmHg 79%
22:00 +8°C° 0 mm 4 m/s 747 mmHg 83%
23:00 +8°C° 0 mm 3 m/s 748 mmHg 86%

21 Mai, Vineri

Timp Temperatura Precipitaţii Vânt Presiune Umiditate
00:00 +8°C° 0 mm 3 m/s 748 mmHg 88%
01:00 +7°C° 0 mm 3 m/s 748 mmHg 90%
02:00 +5°C° 0 mm 3 m/s 748 mmHg 92%
03:00 +5°C° 0 mm 3 m/s 749 mmHg 93%
04:00 +4°C° 0 mm 3 m/s 749 mmHg 93%
05:00 +4°C° 0 mm 3 m/s 749 mmHg 94%
06:00 +7°C° 0 mm 3 m/s 749 mmHg 84%
07:00 +8°C° 0 mm 3 m/s 750 mmHg 75%
08:00 +10°C° 0 mm 4 m/s 750 mmHg 66%
09:00 +11°C° 0 mm 4 m/s 750 mmHg 61%
10:00 +12°C° 0 mm 4 m/s 750 mmHg 57%
11:00 +14°C° 0 mm 4 m/s 750 mmHg 53%
12:00 +14°C° 0 mm 4 m/s 750 mmHg 52%
13:00 +15°C° 0 mm 4 m/s 750 mmHg 51%
14:00 +17°C° 0 mm 4 m/s 750 mmHg 50%
15:00 +17°C° 0 mm 3 m/s 750 mmHg 51%
16:00 +17°C° 0 mm 3 m/s 750 mmHg 52%
17:00 +17°C° 0 mm 3 m/s 749 mmHg 53%
18:00 +15°C° 0 mm 2 m/s 750 mmHg 60%
19:00 +13°C° 0 mm 2 m/s 750 mmHg 66%
20:00 +12°C° 0 mm 1 m/s 750 mmHg 73%
21:00 +11°C° 0 mm 1 m/s 750 mmHg 73%
22:00 +10°C° 0 mm 1 m/s 750 mmHg 74%
23:00 +10°C° 0 mm 1 m/s 750 mmHg 75%

22 Mai, Sâmbătă

Timp Temperatura Precipitaţii Vânt Presiune Umiditate
00:00 +9°C° 0 mm 1 m/s 750 mmHg 76%
01:00 +8°C° 0 mm 2 m/s 750 mmHg 78%
02:00 +7°C° 0 mm 2 m/s 750 mmHg 79%
03:00 +7°C° 0 mm 2 m/s 750 mmHg 80%
04:00 +7°C° 0 mm 2 m/s 750 mmHg 81%
05:00 +7°C° 0 mm 3 m/s 749 mmHg 82%
06:00 +9°C° 0 mm 3 m/s 749 mmHg 78%
07:00 +10°C° 0 mm 4 m/s 749 mmHg 74%
08:00 +12°C° 0 mm 4 m/s 749 mmHg 69%
09:00 +13°C° 0 mm 4 m/s 749 mmHg 66%
10:00 +15°C° 0 mm 5 m/s 749 mmHg 62%
11:00 +16°C° 0 mm 5 m/s 749 mmHg 58%
12:00 +17°C° 0 mm 5 m/s 749 mmHg 55%
13:00 +17°C° 0 mm 5 m/s 748 mmHg 53%
14:00 +19°C° 0 mm 5 m/s 748 mmHg 50%
15:00 +19°C° 0 mm 4 m/s 748 mmHg 54%
16:00 +19°C° 0 mm 4 m/s 747 mmHg 58%
17:00 +19°C° 0 mm 3 m/s 747 mmHg 62%
18:00 +18°C° 0 mm 3 m/s 747 mmHg 67%
19:00 +16°C° 0 mm 3 m/s 747 mmHg 72%
20:00 +14°C° 0 mm 3 m/s 747 mmHg 78%
21:00 +14°C° 0 mm 3 m/s 746 mmHg 77%
22:00 +13°C° 0 mm 3 m/s 746 mmHg 77%
23:00 +13°C° 0 mm 3 m/s 746 mmHg 77%

23 Mai, Duminică

Timp Temperatura Precipitaţii Vânt Presiune Umiditate
00:00 +13°C° 0.1 mm 4 m/s 746 mmHg 79%
01:00 +12°C° 0.1 mm 4 m/s 745 mmHg 82%
02:00 +12°C° 0.1 mm 4 m/s 745 mmHg 84%
03:00 +12°C° 0.1 mm 4 m/s 745 mmHg 86%
04:00 +12°C° 0.1 mm 4 m/s 745 mmHg 89%
05:00 +11°C° 0.1 mm 4 m/s 744 mmHg 91%
06:00 +12°C° 0.2 mm 4 m/s 745 mmHg 92%
07:00 +12°C° 0.2 mm 4 m/s 745 mmHg 92%
08:00 +12°C° 0.2 mm 4 m/s 745 mmHg 92%
09:00 +13°C° 0.1 mm 4 m/s 746 mmHg 84%
10:00 +14°C° 0.1 mm 5 m/s 746 mmHg 77%
11:00 +14°C° 0.1 mm 5 m/s 746 mmHg 69%
12:00 +15°C° 0.1 mm 5 m/s 747 mmHg 67%
13:00 +16°C° 0.1 mm 6 m/s 747 mmHg 64%
14:00 +16°C° 0.1 mm 6 m/s 747 mmHg 62%
15:00 +17°C° 0 mm 6 m/s 747 mmHg 62%
16:00 +17°C° 0 mm 5 m/s 747 mmHg 62%
17:00 +17°C° 0 mm 5 m/s 747 mmHg 62%
18:00 +15°C° 0 mm 4 m/s 747 mmHg 67%
19:00 +14°C° 0 mm 3 m/s 747 mmHg 72%
20:00 +14°C° 0 mm 2 m/s 748 mmHg 77%
21:00 +13°C° 0 mm 2 m/s 748 mmHg 78%
22:00 +12°C° 0 mm 2 m/s 748 mmHg 79%
23:00 +12°C° 0 mm 2 m/s 748 mmHg 80%
Arată mai mult

Formular de consimțământ

Meteoprog și furnizorii noștri de servicii pot stoca și accesa date personale, precum cookies, identificatori de dispozitiv sau alte tehnologii similare pe dispozitivul dumneavoastră și procesa astfel de date pentru a personaliza conținutul și reclamele, dar și pentru a oferi caracteristici de social media și pentru a analiza traficul.

  • Stocarea și/sau accesarea informațiilor pe dispozitivul dumneavoastră

    Cookies, identificatori de dispozitiv sau alte informații pot fi stocate sau accesate pe dispozitiv în scopurile indicate mai sus.

  • Reclame și conținut personalizat, evaluarea reclamelor și a conținutului, informații despre audiențe și dezvoltarea produselor

    Reclamele și conținutul pot fi personalizate pe baza unui profil. Pot fi adăugate date suplimentare pentru a personaliza mai bine reclamele și conținutul. Performanța reclamelor și conținutului poate fi măsurată. Pot fi obținute informații despre utilizatorii care au văzut reclamele și conținutul. Aceste date pot fi utilizate pentru a dezvolta sau îmbunătăți experiența utilizatorilor, sistemele și software-ul.

Dând clic pe ‘Sunt de acord’, permiteți utilizarea cookie-urilor menționate, a identificatorilor de dispozitiv, balizelor web sau altor tehnologii similare. Setările pot fi modificate din browser-ul dispozitivului dumneavoastră.

În anumite scopuri, interesele legitime pot prima asupra consimțământului. Puteți citi mai multe informații în acest sens în Politica privind Confidențialitatea Datelor și Cookie.